Flag for U.S.A. Weather past 2 weeks in Glendale, Arizona, U.S.A.

Now
63 °F

Scattered clouds.


Feels Like: 63 °F
Forecast: 60 / 77 °F
Wind: 8 mph from Southwest

Location: Phoenix-Deer Valley Municipal Airport

Current Time: Apr 26, 2015 at 2:23:30 PM

Latest Report: Apr 26, 2015 at 1:53 PM


Visibility: 10 mi

Pressure: 29.77 "Hg

Humidity: 63%

Dew point: 50 °F

Location of GlendaleLocation

Historic Weather in Glendale — Graph

°F

Glendale temperature yesterday

Maximum temperature yesterday: 77 °F (at 2:53 PM)
Minimum temperature yesterday: 53 °F (at 11:53 PM)
Average temperature yesterday: 66 °F

Past Weeks' High & Low Weather Summary

 TemperatureHumidityPressure
High89 °F (Apr 14, 3:53 PM)94% (Apr 26, 5:02 AM)30.00 "Hg (Apr 26, 5:02 AM)
Low51 °F (Apr 16, 4:53 AM)2% (Apr 15, 11:53 AM)29.64 "Hg (Apr 20, 5:53 PM)
Average70 °F24%29.81 "Hg
* Reported Apr 11 12:53 PM — Apr 26 12:53 PM, Glendale, Weather by CustomWeather, © 2015

Note: Actual official high and low records may vary slightly from our data, if they occured in-between our weather recording intervals... More about our weather records

Advertising

Glendale weather history for previous 24 hours

 ConditionsComfort  
Time TempWeatherWind HumidityBarometerVisibility
12:53 PM
Sun, Apr 26
60 °FRain. Mostly cloudy.8 mph72%29.79 "Hg5 mi
11:53 AM65 °FPartly sunny.8 mph49%29.78 "Hg10 mi
10:53 AM64 °FBroken clouds.5 mph58%29.80 "Hg10 mi
9:53 AM60 °FPassing clouds.6 mph67%29.80 "Hg10 mi
8:53 AM57 °FScattered clouds.5 mph74%29.79 "Hg10 mi
7:53 AM55 °FMostly cloudy.No wind83%29.78 "Hg10 mi
6:53 AM54 °FPartly sunny.No wind86%29.76 "Hg10 mi
5:53 AM53 °FMostly cloudy.No wind86%29.74 "Hg10 mi
5:02 AM52 °FLight rain. Fog.3 mph94%29.77 "Hg5 mi
4:53 AM52 °FLight rain. Fog.6 mph93%29.72 "Hg6 mi
3:53 AM54 °FOvercast.5 mph90%29.70 "Hg10 mi
2:53 AM53 °FMostly cloudy.3 mph93%29.71 "Hg10 mi
1:53 AM53 °FMostly cloudy.3 mph93%29.72 "Hg10 mi
12:53 AM53 °FLight rain. Mostly cloudy.3 mph89%29.73 "Hg10 mi
11:53 PM
Sat, Apr 25
53 °FLight rain. Overcast.5 mph83%29.75 "Hg5 mi
10:53 PM55 °FLight rain. Overcast.15 mph80%29.74 "Hg10 mi
9:53 PM65 °FMostly cloudy.13 mph42%29.69 "Hg10 mi
8:53 PM65 °FLight rain. Overcast.15 mph44%29.70 "Hg10 mi
7:53 PM68 °FOvercast.23 mph31%29.68 "Hg10 mi
6:53 PM69 °FScattered clouds.15 mph30%29.67 "Hg10 mi
5:53 PM71 °FBroken clouds.18 mph30%29.67 "Hg10 mi
4:53 PM73 °FPartly sunny.18 mph32%29.68 "Hg10 mi
3:53 PM75 °FScattered clouds.20 mph30%29.68 "Hg10 mi
2:53 PM77 °FScattered clouds.16 mph30%29.71 "Hg10 mi
Weather by CustomWeather, © 2015

See weather overviewHow to use our weather pages